Weather History for PAGA - April, 2013

Change the Weather History Date:

Thursday, April 11, 2013

  Actual Average Record
Temperature  
Mean Temperature 4 °F -  
Max Temperature 17 °F 25 °F 51 °F (2004)
Min Temperature -9 °F 4 °F -21 °F (1985)
Degree Days  
Heating Degree Days 61    
Moisture  
Dew Point -6 °F    
Average Humidity 68    
Maximum Humidity 92    
Minimum Humidity 45    
Precipitation  
Precipitation 0.00 in - - ()
Sea Level Pressure  
Sea Level Pressure 30.21 in    
Wind  
Wind Speed 1 mph (WSW)    
Max Wind Speed 9 mph    
Max Gust Speed -    
Visibility 9 miles    
Events Snow    
Averages and records for this station are not official NWS values.
T = Trace of Precipitation, MM = Missing Value Source: NWS Daily Summary

Daily Weather History Graph

Daily Weather History Graph

Search for Another Location

Airport or City:

Trip Planner

Search our weather history database for the weather conditions in past years. The results will help you decide how hot, cold, wet, or windy it might be!

Date:

Astronomy

Apr. 11, 2013 Rise Set
Actual Time 7:06 AM AKDT 9:53 PM AKDT
Civil Twilight 6:11 AM AKDT 10:48 PM AKDT
Nautical Twilight 4:52 AM AKDT 12:09 AM AKDT
Astronomical Twilight 3:01 AM AKDT 1:56 AM AKDT
Moon 7:09 AM AKDT (4/11) No Moon Set
Length of Visible Light 16h 37m
Length of Day
14h 46m
New Moon, 2% of the Moon is Illuminated
Apr 11
New Moon
Apr 18
First Quarter
Apr 25
Full
May 2
Last Quarter
May 9
New

Hourly Weather History & Observations

Time (AKDT) Temp. Windchill Dew Point Humidity Pressure Visibility Wind Dir Wind Speed Gust Speed Precip Events Conditions
12:58 AM 1.0 °F - -6.0 °F 72% 30.06 in 10.0 mi Calm Calm - N/A   Overcast
1:58 AM -0.9 °F - -7.1 °F 75% 30.07 in 9.0 mi Calm Calm - N/A   Partly Cloudy
2:58 AM -2.0 °F - -7.1 °F 79% 30.09 in 10.0 mi Calm Calm - 0.00 in   Clear
3:58 AM -2.9 °F - -7.1 °F 82% 30.12 in 9.0 mi Calm Calm - 0.00 in Snow Light Snow
4:09 AM -2.2 °F - -7.6 °F 78% 30.09 in 9.0 mi Calm Calm - 0.00 in Snow Light Snow
4:58 AM -5.1 °F - -9.9 °F 80% 30.13 in 9.0 mi Calm Calm - 0.00 in Snow Light Snow
5:07 AM -5.8 °F - -9.4 °F 84% 30.11 in 9.0 mi Calm Calm - N/A   Scattered Clouds
5:58 AM -7.1 °F - -11.9 °F 79% 30.15 in 10.0 mi Calm Calm - N/A   Clear
6:58 AM -9.0 °F - -13.0 °F 83% 30.17 in 10.0 mi Calm Calm - N/A   Partly Cloudy
7:45 AM -9.4 °F - -11.2 °F 92% 30.15 in 8.0 mi Calm Calm - N/A   Mostly Cloudy
7:58 AM -8.0 °F - -11.9 °F 83% 30.18 in 10.0 mi Calm Calm - N/A   Mostly Cloudy
8:06 AM -7.6 °F - -11.2 °F 84% 30.16 in 9.0 mi Calm Calm - N/A   Scattered Clouds
8:16 AM -5.8 °F - -9.4 °F 84% 30.17 in 1.8 mi Calm Calm - N/A   Partly Cloudy
8:40 AM -5.8 °F - -9.4 °F 84% 30.18 in 2.0 mi Calm Calm - N/A   Haze
8:45 AM -4.0 °F - -9.4 °F 78% 30.18 in 1.5 mi Calm Calm - N/A   Haze
8:53 AM -4.0 °F - -9.4 °F 78% 30.18 in 3.0 mi Calm Calm - N/A   Haze
8:58 AM -2.9 °F - -9.9 °F 72% 30.20 in 6.0 mi Calm Calm - N/A   Haze
9:58 AM 6.1 °F - -5.1 °F 60% 30.22 in 10.0 mi Calm Calm - N/A   Clear
10:58 AM 9.0 °F 2.4 °F -2.9 °F 59% 30.24 in 10.0 mi West 3.5 mph - N/A   Clear
11:58 AM 12.0 °F 2.7 °F -0.0 °F 59% 30.24 in 10.0 mi WSW 5.8 mph - N/A   Clear
12:58 PM 12.9 °F 1.6 °F -0.9 °F 54% 30.25 in 10.0 mi SW 8.1 mph - N/A   Clear
1:58 PM 14.0 °F 6.5 °F -0.9 °F 52% 30.27 in 10.0 mi ESE 4.6 mph - N/A   Partly Cloudy
2:58 PM 16.0 °F - -0.9 °F 47% 30.28 in 10.0 mi Calm Calm - N/A   Clear
3:58 PM 17.1 °F 10.0 °F -0.9 °F 45% 30.29 in 10.0 mi SW 4.6 mph - N/A   Clear
4:58 PM 16.0 °F 7.4 °F -0.0 °F 49% 30.29 in 10.0 mi SW 5.8 mph - N/A   Partly Cloudy
5:58 PM 16.0 °F 5.3 °F 1.0 °F 52% 30.29 in 10.0 mi SW 8.1 mph - N/A   Clear
6:58 PM 16.0 °F 4.4 °F 1.0 °F 52% 30.29 in 10.0 mi WSW 9.2 mph - N/A   Clear
7:58 PM 16.0 °F 6.3 °F -0.0 °F 49% 30.30 in 10.0 mi WSW 6.9 mph - N/A   Clear
8:58 PM 12.9 °F - -0.9 °F 54% 30.32 in 10.0 mi Calm Calm - N/A   Clear
9:58 PM 10.0 °F 3.6 °F -2.9 °F 56% 30.34 in 9.0 mi WSW 3.5 mph - N/A   Clear
10:58 PM 8.1 °F - -2.9 °F 61% 30.35 in 10.0 mi Calm Calm - N/A   Clear
11:58 PM 3.0 °F -4.4 °F -7.1 °F 63% 30.37 in 10.0 mi NNW 3.5 mph - N/A   Clear